CST,Max TemperatureF,Mean TemperatureF,Min TemperatureF,Max Dew PointF,MeanDew PointF,Min DewpointF,Max Humidity, Mean Humidity, Min Humidity, Max Sea Level PressureIn, Mean Sea Level PressureIn, Min Sea Level PressureIn, Max VisibilityMiles, Mean VisibilityMiles, Min VisibilityMiles, Max Wind SpeedMPH, Mean Wind SpeedMPH, Max Gust SpeedMPH,PrecipitationIn, CloudCover, Events, WindDirDegrees
2013-1-1,33,25,16,20,16,12,100,80,59,30.31,30.22,30.12,10,9,3,15,6,18,0.00,4,,244
2013-1-2,34,22,10,26,21,7,85,75,64,30.32,30.14,30.05,10,10,8,23,10,28,T,7,Snow,313
2013-1-3,30,22,13,23,17,9,88,71,53,30.45,30.35,30.26,10,10,7,16,8,21,T,4,Snow,293
2013-1-4,45,23,1,20,10,-2,96,65,33,30.30,30.22,30.11,10,10,10,9,1,10,0.00,0,,183
2013-1-5,43,24,5,25,14,4,92,66,40,30.30,30.15,29.97,10,10,8,30,12,39,0.00,0,,312
2013-1-6,45,27,8,23,17,8,92,66,40,30.35,30.23,30.01,10,10,10,21,7,26,0.00,0,,193
2013-1-7,49,31,12,25,19,10,92,62,31,30.06,30.00,29.91,10,10,10,20,4,25,0.00,0,,26
2013-1-8,48,29,10,30,21,8,95,75,44,30.24,29.97,29.86,10,10,10,15,4,22,0.00,0,,277
2013-1-9,56,34,12,27,23,11,92,61,30,30.43,30.31,30.25,10,10,10,20,7,24,0.00,0,,209
2013-1-10,39,36,33,36,32,24,100,88,60,30.24,29.86,29.62,10,6,1,15,11,23,0.02,6,Rain,170
2013-1-11,40,29,17,37,29,10,100,87,74,29.86,29.49,29.34,10,5,1,33,12,43,T,8,Rain-Snow,305
2013-1-12,17,12,6,9,3,0,80,69,58,30.25,30.10,29.80,10,10,10,26,16,32,0.00,2,,313
2013-1-13,21,11,0,6,1,-5,87,69,51,30.41,30.32,30.25,10,10,10,17,7,21,0.00,2,,303
2013-1-14,28,11,-7,9,2,-11,95,66,37,30.51,30.42,30.24,10,10,10,14,5,18,0.00,2,,249
2013-1-15,34,19,3,14,6,0,88,56,24,30.35,30.21,30.03,10,10,10,20,9,24,0.00,2,,225
2013-1-16,53,39,24,29,25,17,81,57,32,30.31,30.08,29.95,10,10,10,30,13,39,T,2,,301
2013-1-17,51,32,13,26,22,13,100,68,35,30.49,30.37,30.24,10,10,10,13,6,16,0.00,0,,245
2013-1-18,61,41,21,23,20,17,84,52,19,30.20,30.01,29.91,10,10,10,16,7,20,0.00,0,,244
2013-1-19,55,39,22,24,21,15,75,51,26,30.35,30.12,29.91,10,10,10,25,13,38,0.00,0,,327
2013-1-20,24,17,10,15,10,4,88,70,52,30.48,30.40,30.30,10,10,10,16,6,21,0.00,3,,51
2013-1-21,21,15,8,10,5,1,80,71,62,30.50,30.41,30.35,10,8,2,17,5,21,T,8,Snow,44
2013-1-22,28,20,11,14,8,3,76,61,46,30.36,30.28,30.20,10,10,10,16,7,20,0.00,2,,166
2013-1-23,32,20,7,17,9,2,91,69,46,30.56,30.36,30.21,10,10,10,18,8,23,0.00,0,,6
2013-1-24,22,13,3,9,2,-2,86,66,45,30.55,30.33,30.05,10,10,10,22,8,28,0.00,1,,161
2013-1-25,55,32,8,24,14,4,88,55,22,30.25,30.21,30.16,10,10,10,13,4,15,0.00,0,,309
2013-1-26,55,37,19,28,23,17,92,61,30,30.18,30.05,29.89,10,10,8,26,10,33,0.00,1,,151
2013-1-27,45,36,26,40,36,26,100,82,64,29.88,29.75,29.66,10,3,0,9,4,12,0.12,7,Fog-Rain,181
2013-1-28,41,32,23,40,30,21,100,93,85,29.83,29.72,29.61,6,2,0,20,4,25,0.00,7,Fog,53
2013-1-29,36,32,28,31,28,22,92,78,64,29.86,29.73,29.66,10,8,2,23,13,31,T,8,Snow,336
2013-1-30,28,22,16,19,12,7,84,65,46,29.98,29.91,29.80,10,9,3,38,16,43,T,6,Snow,330
2013-1-31,18,8,-2,8,-1,-8,83,65,46,30.47,30.27,30.02,10,10,8,32,13,39,T,4,Snow,326